RH
94 93 99 79 76 82 87 95 93 93 85 67 67 58 39 61 19 7 7 46 77 90 88 89 70 52 24 12 12 30 41 49 50 43 41 37 55 67 51 50 54 52 56
78 92 87 89 79 85 90 96 89 87 82 67 62 74 37 91 82 32 12 20 62 91 84 74 64 52 28 17 19 50 62 53 49 46 49 77 63 54 42 47 60 59 55
79 90 71 77 86 78 94 97 90 76 78 65 64 67 76 34 87 77 54 24 30 91 93 94 89 73 38 22 13 49 74 67 61 52 48 57 63 83 60 39 74 62 61
75 74 69 63 78 82 83 91 98 70 69 74 70 63 73 82 36 29 61 70 30 23 14 15 20 48 23 25 17 24 59 75 64 55 53 49 58 77 67 36 68 75 68
70 74 79 69 58 68 75 81 87 75 68 70 72 70 65 80 91 89 70 51 82 79 65 38 7 8 10 32 31 18 38 64 78 65 44 46 42 57 68 64 21 68 69
56 68 83 88 80 70 60 64 76 69 66 68 66 69 67 66 77 88 93 86 56 49 82 57 36 12 8 39 52 35 55 56 65 77 62 37 25 23 51 61 33 11 20
42 50 67 88 88 80 76 73 70 70 66 59 64 66 66 66 70 79 82 85 86 73 22 40 48 48 16 22 49 67 54 76 78 58 73 54 36 24 18 18 12 9 8
24 25 37 58 91 96 82 76 74 73 75 65 63 62 66 67 61 66 77 81 87 90 71 14 36 52 21 40 59 88 73 56 72 78 64 67 57 39 25 19 10 6 6
18 15 18 26 41 55 89 89 82 79 79 71 75 70 68 66 71 63 58 69 82 91 88 36 14 33 11 54 61 80 89 72 58 56 59 60 59 50 38 27 18 7 6
21 20 17 15 15 14 25 54 92 91 86 83 82 82 78 77 72 70 68 62 60 73 94 89 70 15 11 34 71 76 80 72 62 49 41 62 54 36 39 38 28 11 6
22 23 18 16 18 19 17 15 24 64 87 79 78 83 86 84 77 75 79 79 75 64 65 78 83 89 16 12 37 60 78 82 84 74 70 58 64 57 43 48 38 18 8
12 7 6 8 8 6 6 9 14 17 40 74 86 81 80 80 86 89 85 81 79 79 72 67 72 85 86 29 11 15 42 72 83 83 80 75 33 28 80 32 86 96 95
12 11 10 11 11 9 8 7 7 6 8 15 36 69 86 86 80 78 86 88 90 80 81 77 73 74 89 92 88 80 47 16 39 68 76 67 48 12 71 52 25 41 68
16 14 13 12 11 10 9 9 8 7 7 6 6 18 36 71 87 90 85 83 93 94 89 84 82 83 83 80 80 78 83 87 59 24 12 8 9 9 18 78 68 34 36
15 14 13 12 10 9 8 8 8 7 7 7 7 6 7 26 49 68 76 90 91 89 93 96 90 87 87 87 82 78 71 69 86 76 53 21 16 25 11 40 79 71 43
11 10 9 9 9 10 9 8 7 7 8 8 7 7 7 7 8 22 62 77 86 91 89 95 90 91 89 92 94 90 85 73 58 73 91 94 34 54 41 20 51 77 70
10 10 11 10 10 9 9 9 8 8 8 8 8 8 8 8 8 7 8 21 42 90 78 95 89 88 88 86 88 99 96 91 76 77 94 99 84 62 71 62 32 68 82
11 11 11 12 12 12 12 12 11 11 11 10 9 9 9 9 9 9 9 8 9 20 27 65 88 92 99 96 98 88 98 98 94 79 76 100 92 82 75 81 42 41 60
13 13 13 13 14 14 14 15 15 14 13 13 14 13 13 12 11 10 9 9 10 10 12 31 85 89 77 97 98 97 86 99 99 98 82 96 96 98 82 50 43 31 40
13 13 14 14 15 16 16 16 16 16 16 16 14 15 16 16 17 16 15 14 12 11 12 14 15 36 56 99 90 94 99 91 97 100 97 88 86 100 90 53 39 28 29
13 13 13 13 14 16 16 16 16 15 14 13 13 13 12 14 16 16 18 19 18 18 17 17 18 17 32 46 96 98 89 87 92 94 98 97 90 98 92 78 45 43 27
12 12 13 13 14 14 13 12 11 10 9 8 8 8 9 11 11 11 14 17 19 21 22 21 22 23 26 26 38 48 71 94 99 96 93 97 99 99 93 92 73 71 68
14 14 14 15 16 14 12 11 10 10 10 10 10 9 9 9 8 8 8 10 14 20 22 24 25 25 26 32 36 33 46 80 98 98 96 100 100 100 100 94 91 82 91
16 17 17 15 14 14 14 13 12 12 13 14 13 12 10 9 8 8 8 8 9 13 17 22 25 26 28 29 35 41 39 43 60 99 98 98 100 100 98 99 100 99 89
16 16 16 17 18 17 14 13 15 17 15 14 13 12 11 11 10 10 10 9 8 8 9 14 18 22 26 27 30 35 39 36 37 58 84 99 98 100 100 100 100 99 91
20 21 22 20 18 16 15 16 16 16 16 14 12 10 9 9 11 10 9 9 9 9 9 8 9 12 17 22 24 27 32 39 29 30 52 86 100 100 100 100 99 98 99
Wind_Speed
8 9 14 7 4 3 4 4 4 7 8 9 10 13 12 11 10 5 4 5 5 5 5 4 5 5 7 7 6 7 8 9 7 6 7 8 9 9 9 12 12 11 13
7 12 17 2 6 4 3 3 3 5 7 8 8 10 12 11 11 10 4 4 3 3 4 7 4 5 6 6 5 6 7 8 8 8 7 8 7 7 7 10 10 10 10
5 4 13 16 8 7 3 2 2 3 5 6 6 7 9 8 9 10 9 4 3 3 4 3 1 1 2 2 4 5 6 6 6 7 8 7 6 6 5 8 10 8 7
2 1 7 12 15 8 8 6 4 5 5 5 4 6 5 7 8 8 7 6 4 2 4 5 6 5 3 2 1 4 6 7 6 6 7 8 8 7 6 7 8 8 8
3 1 4 8 8 15 5 6 5 4 6 7 6 5 5 4 5 7 8 4 3 4 4 3 3 3 4 3 3 3 5 6 6 7 7 9 10 10 9 8 7 8 8
1 1 3 2 3 6 8 15 1 7 5 4 6 6 6 4 3 3 4 6 4 3 3 3 2 1 3 3 4 5 5 6 8 9 9 10 11 12 12 11 9 9 10
2 2 3 2 2 4 4 8 8 6 11 2 7 9 9 9 4 3 3 2 5 6 5 6 4 1 2 5 5 8 9 9 8 8 10 11 12 12 13 12 12 11 12
4 5 6 5 5 7 8 9 10 8 9 8 6 8 8 11 9 6 5 5 4 4 6 5 6 6 4 7 9 10 10 10 10 9 12 14 12 12 13 12 12 12 13
7 7 7 8 8 9 10 12 14 13 11 12 10 8 9 12 14 11 9 7 7 6 6 5 6 7 7 9 11 12 12 11 12 16 15 13 15 14 14 13 12 13 15
5 5 6 8 9 11 13 13 14 16 16 16 15 13 13 13 12 13 11 10 9 8 8 8 7 7 9 13 14 14 15 13 12 15 16 15 14 16 16 15 14 14 16
7 7 7 8 9 10 11 11 15 15 17 19 19 18 16 16 17 17 16 11 9 9 10 9 12 9 9 11 17 18 17 16 16 17 18 15 15 14 16 17 17 16 18
11 10 11 10 11 11 11 12 14 13 16 19 21 22 21 21 18 18 18 17 20 21 17 14 13 13 11 9 10 16 19 20 21 22 22 21 19 16 13 18 16 13 14
15 16 16 16 16 15 15 15 15 16 17 18 19 20 23 24 24 23 21 20 22 21 23 23 19 17 15 13 15 15 16 19 25 29 27 26 22 21 15 16 19 22 20
20 20 21 21 21 21 21 20 20 20 20 20 21 22 23 23 24 26 26 26 26 26 25 26 26 24 21 20 20 19 20 22 23 25 27 25 17 18 17 17 18 22 25
24 24 24 24 24 25 26 25 25 24 24 24 24 24 25 26 28 27 27 28 31 31 31 29 30 30 31 30 26 25 25 26 26 29 30 27 19 17 17 23 22 23 24
28 28 29 30 29 28 28 28 29 29 29 28 29 29 28 29 30 30 32 32 32 31 31 37 33 35 33 33 35 33 30 29 29 33 32 32 24 20 17 21 24 21 22
31 31 31 30 31 32 32 32 31 31 32 32 32 33 33 33 33 34 34 36 37 38 36 34 35 38 40 38 38 37 35 35 33 31 31 33 27 25 23 20 21 26 26
33 33 33 33 33 32 32 34 36 36 34 34 35 35 36 37 37 37 37 38 39 40 39 41 43 39 42 45 45 40 39 42 39 34 37 37 39 32 29 28 26 27 31
34 35 35 34 34 35 35 35 35 36 38 39 38 37 38 39 40 41 41 42 42 41 41 43 39 42 44 41 43 47 43 43 42 40 37 41 40 36 36 31 30 29 31
35 34 34 34 34 34 35 35 36 36 36 37 40 41 41 42 42 41 43 44 45 46 46 46 46 50 51 44 50 41 45 47 40 46 44 44 45 44 40 35 32 32 32
32 32 32 33 33 34 33 32 32 33 36 38 39 40 42 45 45 46 46 46 46 46 47 49 49 49 47 52 52 47 50 47 46 43 43 53 47 45 41 40 36 33 35
31 33 33 33 33 34 36 37 39 39 41 42 42 43 44 45 46 48 49 50 50 49 49 50 51 50 49 49 54 51 49 49 41 36 51 54 56 45 44 41 38 32 34
30 31 32 34 35 36 38 43 46 47 48 47 47 48 47 47 49 50 51 53 53 53 53 52 53 53 52 49 48 50 51 51 38 42 33 40 36 49 45 36 45 40 37
30 32 32 34 37 41 44 48 51 50 48 47 45 44 44 45 46 47 49 52 54 56 56 55 55 55 55 51 50 49 51 50 54 37 41 47 46 39 50 47 48 46 43
27 30 35 38 41 45 48 48 46 46 44 41 41 40 38 36 36 38 42 46 49 52 56 59 58 58 57 55 53 52 50 51 49 53 45 45 43 46 46 48 46 45 45
32 34 37 40 43 45 45 44 42 40 41 41 41 41 39 37 35 35 36 38 41 45 50 52 57 60 60 60 56 55 55 54 52 54 56 56 33 33 42 42 40 42 45
Wind_Direction
23 99 74 95 90 93 84 89 62 57 53 43 38 43 48 49 55 71 168 167 157 137 127 107 94 90 72 67 81 107 121 120 121 126 123 122 121 115 108 109 105 108 110
13 11 1 237 116 62 56 83 68 42 53 52 33 45 51 54 50 52 72 166 132 108 141 116 104 79 76 74 75 115 128 135 133 134 136 124 127 122 131 116 111 113 117
51 4 11 12 153 140 101 67 32 41 33 42 46 46 49 53 58 44 44 62 157 182 111 184 257 343 2 80 111 150 154 144 145 143 149 154 148 128 128 134 122 117 137
86 342 41 23 353 135 118 63 35 11 2 18 24 45 46 48 51 51 58 39 59 78 318 282 262 264 294 282 199 183 189 181 171 168 173 172 177 172 158 155 146 138 154
139 351 20 22 37 41 144 104 72 24 7 352 4 16 35 38 40 40 46 64 53 40 32 352 305 250 243 246 257 242 220 208 197 200 200 198 196 198 192 185 179 179 171
78 276 339 27 25 44 40 53 350 322 306 341 350 353 17 4 7 21 32 19 19 297 288 337 19 338 194 229 254 265 236 240 229 220 217 220 212 207 210 219 224 219 219
287 307 298 279 218 214 169 186 203 248 218 312 354 358 353 333 334 335 339 2 350 351 299 279 269 265 238 194 237 237 239 250 260 253 246 229 229 219 215 226 233 233 226
292 286 278 281 257 248 237 220 217 217 216 228 229 285 325 324 325 316 315 312 301 321 335 296 266 255 232 201 222 231 245 273 273 262 257 251 243 238 230 230 239 234 231
279 277 273 275 277 272 250 244 242 250 243 239 241 216 242 267 292 307 305 298 305 298 309 314 294 274 248 223 221 232 247 252 278 278 278 259 254 253 247 242 245 241 235
275 273 279 283 284 279 272 263 250 255 256 256 256 252 249 266 262 269 278 292 291 295 296 299 301 297 274 239 229 240 248 250 263 276 284 276 267 262 254 249 249 248 242
269 268 273 281 282 284 287 279 269 260 254 258 261 261 260 260 262 269 272 272 277 290 293 288 290 284 280 264 253 249 248 255 258 265 278 271 272 274 267 257 250 248 244
275 275 278 278 279 280 282 282 283 277 265 262 260 262 263 262 262 265 266 269 276 277 273 283 272 270 263 264 269 266 266 266 266 266 268 274 269 271 259 262 243 230 212
273 274 278 281 281 279 279 278 277 276 274 272 264 262 263 262 263 263 263 262 263 262 270 268 273 270 253 256 263 268 272 273 271 273 271 272 272 266 246 257 256 246 231
273 275 277 279 280 280 278 277 276 275 273 271 271 266 265 260 260 261 261 260 260 261 261 260 265 266 266 258 257 257 262 269 269 272 273 273 273 265 246 258 266 257 253
282 283 281 279 277 278 280 279 276 273 271 271 268 265 265 262 261 258 259 259 263 261 262 266 264 261 261 263 265 265 257 257 264 267 271 276 273 279 254 247 246 264 256
281 282 283 284 285 282 279 277 277 275 272 269 268 268 265 261 260 258 256 256 257 259 264 259 262 264 262 263 259 258 263 262 259 263 274 275 268 274 276 254 243 257 261
282 283 282 282 280 281 283 281 278 274 274 272 268 267 265 264 262 261 258 257 257 258 261 258 254 257 264 263 265 258 246 256 262 261 260 268 271 262 269 275 255 242 250
280 279 279 280 281 280 278 277 279 280 277 273 272 270 268 267 265 264 262 261 259 257 258 255 259 260 257 256 258 255 260 246 251 255 253 257 265 260 264 267 262 248 242
279 279 280 280 279 279 280 280 277 275 275 278 276 273 271 268 267 266 264 263 263 262 260 255 256 254 258 256 258 264 260 261 247 243 249 249 259 260 261 260 259 250 244
279 280 280 281 281 280 279 279 279 279 278 275 273 275 276 275 273 270 269 266 263 262 261 259 254 255 256 261 255 259 256 261 260 252 248 242 254 256 258 260 255 255 248
280 283 285 285 285 286 286 285 286 284 284 284 283 280 275 276 275 274 272 269 268 266 263 262 260 258 257 257 256 259 262 267 261 267 246 245 249 252 254 258 260 256 251
283 285 286 286 286 286 287 289 289 288 289 288 285 283 281 277 274 275 274 272 270 267 266 265 263 260 260 260 258 264 259 257 252 259 246 253 251 249 253 254 256 256 264
283 284 285 287 289 292 296 299 300 300 299 296 293 290 287 282 279 275 271 270 270 269 267 265 264 264 261 260 263 262 259 258 266 253 257 244 249 244 249 254 258 254 260
281 283 285 288 293 299 302 305 306 305 304 303 302 299 294 290 286 281 276 271 267 265 264 265 264 263 262 258 257 260 260 259 252 250 245 247 251 252 247 250 252 261 262
280 285 289 294 298 304 308 307 306 306 308 310 310 310 307 303 298 292 285 280 276 270 266 263 260 261 260 259 256 253 253 256 258 254 251 242 241 245 246 239 256 254 252
284 288 292 299 303 306 305 303 303 305 306 308 309 310 311 309 305 300 291 285 280 276 273 269 265 261 259 258 254 253 252 249 249 253 254 246 239 233 229 233 244 242 247